Year,Month,Day,Hour,Minute,Value (Times are PST for windspeed in km/hr)
2009,05,05,00,00,9.80
2009,05,05,00,01,11.70
2009,05,05,00,02,6.80
2009,05,05,00,03,5.30
2009,05,05,00,04,7.50
2009,05,05,00,05,9.70
2009,05,05,00,06,9.50
2009,05,05,00,07,6.10
2009,05,05,00,08,9.20
2009,05,05,00,09,9.30
2009,05,05,00,10,7.20
2009,05,05,00,11,6.30
2009,05,05,00,12,7.00
2009,05,05,00,13,5.90
2009,05,05,00,14,7.20
2009,05,05,00,15,4.70
2009,05,05,00,16,3.40
2009,05,05,00,17,1.00
2009,05,05,00,18,0.10
2009,05,05,00,19,0.70
2009,05,05,00,20,0.90
2009,05,05,00,21,0.00
2009,05,05,00,22,0.00
2009,05,05,00,23,1.50
2009,05,05,00,24,0.00
2009,05,05,00,25,0.00
2009,05,05,00,26,0.00
2009,05,05,00,27,0.00
2009,05,05,00,28,1.40
2009,05,05,00,29,0.10
2009,05,05,00,30,0.40
2009,05,05,00,31,0.20
2009,05,05,00,32,0.00
2009,05,05,00,33,1.40
2009,05,05,00,34,0.00
2009,05,05,00,35,0.00
2009,05,05,00,36,0.00
2009,05,05,00,37,0.00
2009,05,05,00,38,0.00
2009,05,05,00,39,1.50
2009,05,05,00,40,3.00
2009,05,05,00,41,2.70
2009,05,05,00,42,3.70
2009,05,05,00,43,4.70
2009,05,05,00,44,5.00
2009,05,05,00,45,4.30
2009,05,05,00,46,4.80
2009,05,05,00,47,5.80
2009,05,05,00,48,6.50
2009,05,05,00,49,6.80
2009,05,05,00,50,4.70
2009,05,05,00,51,6.50
2009,05,05,00,52,5.60
2009,05,05,00,53,5.10
2009,05,05,00,54,7.20
2009,05,05,00,55,5.80
2009,05,05,00,56,6.70
2009,05,05,00,57,2.10
2009,05,05,00,58,0.00
2009,05,05,00,59,2.30
2009,05,05,01,00,3.60
2009,05,05,01,01,0.40
2009,05,05,01,02,0.50
2009,05,05,01,03,0.90
2009,05,05,01,04,0.60
2009,05,05,01,05,1.50
2009,05,05,01,06,0.70
2009,05,05,01,07,1.50
2009,05,05,01,08,0.00
2009,05,05,01,09,2.50
2009,05,05,01,10,4.40
2009,05,05,01,11,5.60
2009,05,05,01,12,4.20
2009,05,05,01,13,4.10
2009,05,05,01,14,5.00
2009,05,05,01,15,1.40
2009,05,05,01,16,1.90
2009,05,05,01,17,2.10
2009,05,05,01,18,3.80
2009,05,05,01,19,3.00
2009,05,05,01,20,3.00
2009,05,05,01,21,2.40
2009,05,05,01,22,1.10
2009,05,05,01,23,0.00
2009,05,05,01,24,0.00
2009,05,05,01,25,0.00
2009,05,05,01,26,0.10
2009,05,05,01,27,0.10
2009,05,05,01,28,0.10
2009,05,05,01,29,1.10
2009,05,05,01,30,0.00
2009,05,05,01,31,0.10
2009,05,05,01,32,0.00
2009,05,05,01,33,0.40
2009,05,05,01,34,0.00
2009,05,05,01,35,0.00
2009,05,05,01,36,0.00
2009,05,05,01,37,0.00
2009,05,05,01,38,0.00
2009,05,05,01,39,0.00
2009,05,05,01,40,0.00
2009,05,05,01,41,0.00
2009,05,05,01,42,0.00
2009,05,05,01,43,0.00
2009,05,05,01,44,0.00
2009,05,05,01,45,0.00
2009,05,05,01,46,0.00
2009,05,05,01,47,0.00
2009,05,05,01,48,0.00
2009,05,05,01,49,0.00
2009,05,05,01,50,0.10
2009,05,05,01,51,0.00
2009,05,05,01,52,0.00
2009,05,05,01,53,0.00
2009,05,05,01,54,0.60
2009,05,05,01,55,0.40
2009,05,05,01,56,1.50
2009,05,05,01,57,0.10
2009,05,05,01,58,0.40
2009,05,05,01,59,1.50
2009,05,05,02,00,4.20
2009,05,05,02,01,3.60
2009,05,05,02,02,3.80
2009,05,05,02,03,2.60
2009,05,05,02,04,0.20
2009,05,05,02,05,1.40
2009,05,05,02,06,0.00
2009,05,05,02,07,0.00
2009,05,05,02,08,0.00
2009,05,05,02,09,0.00
2009,05,05,02,10,0.00
2009,05,05,02,11,0.00
2009,05,05,02,12,0.10
2009,05,05,02,13,0.00
2009,05,05,02,14,0.00
2009,05,05,02,15,0.00
2009,05,05,02,16,0.00
2009,05,05,02,17,0.00
2009,05,05,02,18,0.00
2009,05,05,02,19,0.00
2009,05,05,02,20,0.00
2009,05,05,02,21,0.10
2009,05,05,02,22,0.20
2009,05,05,02,23,0.00
2009,05,05,02,24,0.00
2009,05,05,02,25,1.50
2009,05,05,02,26,0.70
2009,05,05,02,27,0.10
2009,05,05,02,28,0.00
2009,05,05,02,29,0.00
2009,05,05,02,30,0.00
2009,05,05,02,31,0.00
2009,05,05,02,32,0.00
2009,05,05,02,33,0.00
2009,05,05,02,34,0.00
2009,05,05,02,35,1.00
2009,05,05,02,36,3.20
2009,05,05,02,37,3.30
2009,05,05,02,38,2.50
2009,05,05,02,39,0.00
2009,05,05,02,40,0.00
2009,05,05,02,41,0.00
2009,05,05,02,42,0.30
2009,05,05,02,43,0.00
2009,05,05,02,44,0.00
2009,05,05,02,45,2.50
2009,05,05,02,46,2.50
2009,05,05,02,47,2.20
2009,05,05,02,48,3.10
2009,05,05,02,49,1.60
2009,05,05,02,50,0.10
2009,05,05,02,51,0.20
2009,05,05,02,52,2.50
2009,05,05,02,53,0.40
2009,05,05,02,54,0.00
2009,05,05,02,55,0.30
2009,05,05,02,56,3.00
2009,05,05,02,57,0.80
2009,05,05,02,58,0.60
2009,05,05,02,59,0.30
2009,05,05,03,00,0.00
2009,05,05,03,01,1.90
2009,05,05,03,02,1.50
2009,05,05,03,03,0.20
2009,05,05,03,04,0.20
2009,05,05,03,05,0.80
2009,05,05,03,06,0.50
2009,05,05,03,07,1.10
2009,05,05,03,08,2.90
2009,05,05,03,09,1.80
2009,05,05,03,10,0.70
2009,05,05,03,11,0.90
2009,05,05,03,12,1.90
2009,05,05,03,13,4.60
2009,05,05,03,14,2.90
2009,05,05,03,15,4.20
2009,05,05,03,16,6.00
2009,05,05,03,17,5.20
2009,05,05,03,18,4.70
2009,05,05,03,19,1.70
2009,05,05,03,20,3.20
2009,05,05,03,21,1.50
2009,05,05,03,22,4.40
2009,05,05,03,23,1.80
2009,05,05,03,24,1.60
2009,05,05,03,25,0.20
2009,05,05,03,26,1.00
2009,05,05,03,27,0.00
2009,05,05,03,28,0.00
2009,05,05,03,29,0.00
2009,05,05,03,30,2.90
2009,05,05,03,31,2.60
2009,05,05,03,32,4.10
2009,05,05,03,33,4.70
2009,05,05,03,34,4.20
2009,05,05,03,35,3.80
2009,05,05,03,36,1.00
2009,05,05,03,37,2.60
2009,05,05,03,38,3.50
2009,05,05,03,39,0.90
2009,05,05,03,40,0.60
2009,05,05,03,41,1.70
2009,05,05,03,42,0.30
2009,05,05,03,43,1.20
2009,05,05,03,44,0.00
2009,05,05,03,45,0.00
2009,05,05,03,46,0.00
2009,05,05,03,47,0.00
2009,05,05,03,48,0.10
2009,05,05,03,49,0.00
2009,05,05,03,50,0.20
2009,05,05,03,51,0.10
2009,05,05,03,52,0.00
2009,05,05,03,53,0.00
2009,05,05,03,54,0.00
2009,05,05,03,55,0.00
2009,05,05,03,56,0.00
2009,05,05,03,57,0.00
2009,05,05,03,58,0.30
2009,05,05,03,59,1.80
2009,05,05,04,00,0.20
2009,05,05,04,01,0.60
2009,05,05,04,02,0.60
2009,05,05,04,03,0.00
2009,05,05,04,04,0.00
2009,05,05,04,05,0.10
2009,05,05,04,06,0.00
2009,05,05,04,07,0.00
2009,05,05,04,08,0.00
2009,05,05,04,09,0.00
2009,05,05,04,10,0.00
2009,05,05,04,11,0.00
2009,05,05,04,12,0.00
2009,05,05,04,13,0.00
2009,05,05,04,14,0.10
2009,05,05,04,15,1.30
2009,05,05,04,16,0.20
2009,05,05,04,17,0.00
2009,05,05,04,18,0.00
2009,05,05,04,19,0.00
2009,05,05,04,20,0.00
2009,05,05,04,21,0.00
2009,05,05,04,22,0.00
2009,05,05,04,23,0.80
2009,05,05,04,24,0.00
2009,05,05,04,25,0.60
2009,05,05,04,26,1.60
2009,05,05,04,27,0.80
2009,05,05,04,28,1.60
2009,05,05,04,29,3.60
2009,05,05,04,30,1.10
2009,05,05,04,31,3.40
2009,05,05,04,32,1.40
2009,05,05,04,33,2.20
2009,05,05,04,34,0.40
2009,05,05,04,35,0.10
2009,05,05,04,36,1.10
2009,05,05,04,37,0.10
2009,05,05,04,38,2.20
2009,05,05,04,39,4.70
2009,05,05,04,40,0.80
2009,05,05,04,41,0.00
2009,05,05,04,42,0.20
2009,05,05,04,43,0.10
2009,05,05,04,44,0.00
2009,05,05,04,45,1.90
2009,05,05,04,46,0.00
2009,05,05,04,47,0.00
2009,05,05,04,48,0.10
2009,05,05,04,49,0.00
2009,05,05,04,50,0.00
2009,05,05,04,51,0.00
2009,05,05,04,52,0.10
2009,05,05,04,53,1.40
2009,05,05,04,54,0.20
2009,05,05,04,55,0.00
2009,05,05,04,56,1.10
2009,05,05,04,57,0.00
2009,05,05,04,58,0.00
2009,05,05,04,59,0.20
2009,05,05,05,00,3.40
2009,05,05,05,01,0.40
2009,05,05,05,02,0.00
2009,05,05,05,03,3.10
2009,05,05,05,04,0.30
2009,05,05,05,05,0.30
2009,05,05,05,06,3.70
2009,05,05,05,07,2.20
2009,05,05,05,08,0.20
2009,05,05,05,09,0.00
2009,05,05,05,10,0.00
2009,05,05,05,11,0.00
2009,05,05,05,12,0.00
2009,05,05,05,13,0.00
2009,05,05,05,14,0.00
2009,05,05,05,15,0.00
2009,05,05,05,16,0.00
2009,05,05,05,17,0.00
2009,05,05,05,18,0.00
2009,05,05,05,19,0.00
2009,05,05,05,20,0.00
2009,05,05,05,21,0.00
2009,05,05,05,22,0.00
2009,05,05,05,23,0.00
2009,05,05,05,24,0.00
2009,05,05,05,25,0.00
2009,05,05,05,26,0.00
2009,05,05,05,27,0.00
2009,05,05,05,28,0.00
2009,05,05,05,29,0.00
2009,05,05,05,30,0.00
2009,05,05,05,31,0.00
2009,05,05,05,32,0.00
2009,05,05,05,33,0.00
2009,05,05,05,34,0.00
2009,05,05,05,35,0.00
2009,05,05,05,36,0.00
2009,05,05,05,37,0.00
2009,05,05,05,38,0.00
2009,05,05,05,39,0.00
2009,05,05,05,40,0.00
2009,05,05,05,41,0.00
2009,05,05,05,42,0.50
2009,05,05,05,43,2.70
2009,05,05,05,44,3.10
2009,05,05,05,45,1.10
2009,05,05,05,46,0.80
2009,05,05,05,47,0.90
2009,05,05,05,48,1.10
2009,05,05,05,49,2.40
2009,05,05,05,50,1.40
2009,05,05,05,51,3.10
2009,05,05,05,52,2.00
2009,05,05,05,53,4.30
2009,05,05,05,54,3.20
2009,05,05,05,55,1.00
2009,05,05,05,56,0.00
2009,05,05,05,57,0.70
2009,05,05,05,58,0.10
2009,05,05,05,59,7.30
2009,05,05,06,00,4.90
2009,05,05,06,01,4.00
2009,05,05,06,02,1.40
2009,05,05,06,03,0.50
2009,05,05,06,04,4.20
2009,05,05,06,05,0.90
2009,05,05,06,06,0.20
2009,05,05,06,07,2.20
2009,05,05,06,08,0.20
2009,05,05,06,09,3.60
2009,05,05,06,10,0.60
2009,05,05,06,11,0.60
2009,05,05,06,12,2.20
2009,05,05,06,13,0.00
2009,05,05,06,14,1.90
2009,05,05,06,15,0.00
2009,05,05,06,16,0.00
2009,05,05,06,17,0.40
2009,05,05,06,18,3.00
2009,05,05,06,19,0.00
2009,05,05,06,20,0.00
2009,05,05,06,21,0.00
2009,05,05,06,22,0.00
2009,05,05,06,23,0.30
2009,05,05,06,24,0.00
2009,05,05,06,25,0.00
2009,05,05,06,26,0.90
2009,05,05,06,27,4.50
2009,05,05,06,28,3.20
2009,05,05,06,29,1.20
2009,05,05,06,30,3.10
2009,05,05,06,31,2.70
2009,05,05,06,32,2.30
2009,05,05,06,33,2.60
2009,05,05,06,34,4.50
2009,05,05,06,35,1.20
2009,05,05,06,36,0.10
2009,05,05,06,37,2.00
2009,05,05,06,38,0.10
2009,05,05,06,39,4.60
2009,05,05,06,40,4.60
2009,05,05,06,41,1.50
2009,05,05,06,42,3.00
2009,05,05,06,43,0.60
2009,05,05,06,44,0.10
2009,05,05,06,45,1.60
2009,05,05,06,46,3.70
2009,05,05,06,47,3.10
2009,05,05,06,48,3.10
2009,05,05,06,49,1.90
2009,05,05,06,50,1.00
2009,05,05,06,51,0.10
2009,05,05,06,52,1.90
2009,05,05,06,53,2.60
2009,05,05,06,54,2.40
2009,05,05,06,55,2.50
2009,05,05,06,56,1.40
2009,05,05,06,57,0.20
2009,05,05,06,58,1.80
2009,05,05,06,59,0.90
2009,05,05,07,00,2.80
2009,05,05,07,01,0.80
2009,05,05,07,02,0.00
2009,05,05,07,03,0.00
2009,05,05,07,04,1.60
2009,05,05,07,05,1.90
2009,05,05,07,06,3.10
2009,05,05,07,07,1.80
2009,05,05,07,08,0.00
2009,05,05,07,09,0.50
2009,05,05,07,10,6.20
2009,05,05,07,11,3.70
2009,05,05,07,12,4.60
2009,05,05,07,13,4.20
2009,05,05,07,14,1.70
2009,05,05,07,15,0.40
2009,05,05,07,16,4.50
2009,05,05,07,17,1.00
2009,05,05,07,18,3.50
2009,05,05,07,19,4.70
2009,05,05,07,20,1.70
2009,05,05,07,21,3.40
2009,05,05,07,22,6.00
2009,05,05,07,23,6.00
2009,05,05,07,24,4.50
2009,05,05,07,25,6.60
2009,05,05,07,26,3.20
2009,05,05,07,27,8.00
2009,05,05,07,28,5.20
2009,05,05,07,29,3.10
2009,05,05,07,30,3.90
2009,05,05,07,31,6.40
2009,05,05,07,32,0.70
2009,05,05,07,33,1.10
2009,05,05,07,34,4.60
2009,05,05,07,35,4.40
2009,05,05,07,36,5.00
2009,05,05,07,37,0.90
2009,05,05,07,38,2.50
2009,05,05,07,39,2.10
2009,05,05,07,40,1.20
2009,05,05,07,41,2.80
2009,05,05,07,42,1.20
2009,05,05,07,43,0.50
2009,05,05,07,44,3.90
2009,05,05,07,45,3.30
2009,05,05,07,46,3.10
2009,05,05,07,47,2.60
2009,05,05,07,48,0.30
2009,05,05,07,49,3.70
2009,05,05,07,50,2.20
2009,05,05,07,51,0.50
2009,05,05,07,52,1.80
2009,05,05,07,53,2.60
2009,05,05,07,54,4.00
2009,05,05,07,55,1.90
2009,05,05,07,56,2.90
2009,05,05,07,57,1.10
2009,05,05,07,58,7.20
2009,05,05,07,59,0.80
2009,05,05,08,00,2.70
2009,05,05,08,01,1.40
2009,05,05,08,02,0.40
2009,05,05,08,03,1.30
2009,05,05,08,04,0.20
2009,05,05,08,05,0.30
2009,05,05,08,06,0.80
2009,05,05,08,07,0.50
2009,05,05,08,08,0.10
2009,05,05,08,09,1.20
2009,05,05,08,10,1.00
2009,05,05,08,11,2.60
2009,05,05,08,12,4.70
2009,05,05,08,13,3.80
2009,05,05,08,14,2.80
2009,05,05,08,15,2.90
2009,05,05,08,16,1.40
2009,05,05,08,17,0.30
2009,05,05,08,18,0.00
2009,05,05,08,19,0.00
2009,05,05,08,20,1.00
2009,05,05,08,21,0.20
2009,05,05,08,22,2.90
2009,05,05,08,23,0.90
2009,05,05,08,24,3.20
2009,05,05,08,25,1.90
2009,05,05,08,26,1.10
2009,05,05,08,27,1.30
2009,05,05,08,28,5.10
2009,05,05,08,29,2.30
2009,05,05,08,30,6.80
2009,05,05,08,31,3.00
2009,05,05,08,32,5.10
2009,05,05,08,33,1.10
2009,05,05,08,34,1.20
2009,05,05,08,35,7.60
2009,05,05,08,36,6.50
2009,05,05,08,37,3.60
2009,05,05,08,38,0.90
2009,05,05,08,39,2.90
2009,05,05,08,40,7.20
2009,05,05,08,41,5.20
2009,05,05,08,42,2.50
2009,05,05,08,43,1.50
2009,05,05,08,44,4.40
2009,05,05,08,45,9.60
2009,05,05,08,46,2.30
2009,05,05,08,47,2.30
2009,05,05,08,48,5.10
2009,05,05,08,49,5.30
2009,05,05,08,50,2.20
2009,05,05,08,51,4.60
2009,05,05,08,52,8.80
2009,05,05,08,53,6.40
2009,05,05,08,54,5.90
2009,05,05,08,55,1.00
2009,05,05,08,56,8.00
2009,05,05,08,57,8.40
2009,05,05,08,58,4.90
2009,05,05,08,59,5.50
2009,05,05,09,00,4.90
2009,05,05,09,01,5.20
2009,05,05,09,02,5.50
2009,05,05,09,03,3.30
2009,05,05,09,04,12.60
2009,05,05,09,05,5.90
2009,05,05,09,06,5.10
2009,05,05,09,07,4.50
2009,05,05,09,08,5.90
2009,05,05,09,09,4.20
2009,05,05,09,10,5.60
2009,05,05,09,11,8.20
2009,05,05,09,12,11.30
2009,05,05,09,13,7.80
2009,05,05,09,14,7.30
2009,05,05,09,15,11.40
2009,05,05,09,16,6.60
2009,05,05,09,17,4.80
2009,05,05,09,18,3.50
2009,05,05,09,19,3.90
2009,05,05,09,20,6.60
2009,05,05,09,21,1.70
2009,05,05,09,22,7.20
2009,05,05,09,23,3.90
2009,05,05,09,24,7.10
2009,05,05,09,25,3.70
2009,05,05,09,26,7.50
2009,05,05,09,27,2.20
2009,05,05,09,28,1.80
2009,05,05,09,29,5.10
2009,05,05,09,30,7.00
2009,05,05,09,31,9.70
2009,05,05,09,32,3.40
2009,05,05,09,33,7.60
2009,05,05,09,34,7.60
2009,05,05,09,35,11.80
2009,05,05,09,36,6.40
2009,05,05,09,37,13.80
2009,05,05,09,38,6.00
2009,05,05,09,39,5.40
2009,05,05,09,40,9.60
2009,05,05,09,41,8.30
2009,05,05,09,42,3.50
2009,05,05,09,43,8.70
2009,05,05,09,44,4.70
2009,05,05,09,45,7.90
2009,05,05,09,46,7.40
2009,05,05,09,47,5.30
2009,05,05,09,48,7.70
2009,05,05,09,49,4.30
2009,05,05,09,50,7.70
2009,05,05,09,51,10.00
2009,05,05,09,52,5.90
2009,05,05,09,53,8.90
2009,05,05,09,54,6.40
2009,05,05,09,55,13.10
2009,05,05,09,56,8.50
2009,05,05,09,57,5.40
2009,05,05,09,58,5.40
2009,05,05,09,59,3.50
2009,05,05,10,00,10.80
2009,05,05,10,01,3.70
2009,05,05,10,02,0.90
2009,05,05,10,03,7.20
2009,05,05,10,04,8.10
2009,05,05,10,05,4.30
2009,05,05,10,06,7.20
2009,05,05,10,07,9.10
2009,05,05,10,08,3.70
2009,05,05,10,09,2.90
2009,05,05,10,10,3.00
2009,05,05,10,11,1.60
2009,05,05,10,12,4.90
2009,05,05,10,13,6.30
2009,05,05,10,14,8.30
2009,05,05,10,15,5.10
2009,05,05,10,16,8.00
2009,05,05,10,17,6.80
2009,05,05,10,18,4.50
2009,05,05,10,19,4.70
2009,05,05,10,20,3.80
2009,05,05,10,21,4.10
2009,05,05,10,22,3.50
2009,05,05,10,23,5.60
2009,05,05,10,24,3.00
2009,05,05,10,25,2.80
2009,05,05,10,26,1.20
2009,05,05,10,27,5.50
2009,05,05,10,28,4.10
2009,05,05,10,29,3.90
2009,05,05,10,30,5.10
2009,05,05,10,31,3.30
2009,05,05,10,32,3.10
2009,05,05,10,33,4.30
2009,05,05,10,34,7.00
2009,05,05,10,35,6.60
2009,05,05,10,36,4.00
2009,05,05,10,37,2.80
2009,05,05,10,38,4.30
2009,05,05,10,39,4.40
2009,05,05,10,40,3.40
2009,05,05,10,41,3.10
2009,05,05,10,42,3.70
2009,05,05,10,43,3.90
2009,05,05,10,44,6.30
2009,05,05,10,45,3.50
2009,05,05,10,46,2.30
2009,05,05,10,47,4.30
2009,05,05,10,48,3.70
2009,05,05,10,49,1.90
2009,05,05,10,50,4.20
2009,05,05,10,51,3.80
2009,05,05,10,52,8.20
2009,05,05,10,53,8.40
2009,05,05,10,54,3.00
2009,05,05,10,55,5.60
2009,05,05,10,56,4.50
2009,05,05,10,57,4.30
2009,05,05,10,58,5.80
2009,05,05,10,59,2.60
2009,05,05,11,00,6.40
2009,05,05,11,01,7.80
2009,05,05,11,02,2.10
2009,05,05,11,03,1.90
2009,05,05,11,04,8.60
2009,05,05,11,05,3.60
2009,05,05,11,06,4.80
2009,05,05,11,07,4.90
2009,05,05,11,08,8.10
2009,05,05,11,09,5.00
2009,05,05,11,10,4.80
2009,05,05,11,11,3.50
2009,05,05,11,12,5.90
2009,05,05,11,13,5.70
2009,05,05,11,14,4.20
2009,05,05,11,15,7.10
2009,05,05,11,16,4.40
2009,05,05,11,17,1.70
2009,05,05,11,18,3.70
2009,05,05,11,19,2.30
2009,05,05,11,20,5.60
2009,05,05,11,21,5.80
2009,05,05,11,22,7.80
2009,05,05,11,23,7.70
2009,05,05,11,24,3.50
2009,05,05,11,25,5.90
2009,05,05,11,26,4.90
2009,05,05,11,27,0.70
2009,05,05,11,28,1.50
2009,05,05,11,29,6.40
2009,05,05,11,30,3.60
2009,05,05,11,31,6.70
2009,05,05,11,32,4.50
2009,05,05,11,33,4.50
2009,05,05,11,34,1.40
2009,05,05,11,35,4.40
2009,05,05,11,36,2.00
2009,05,05,11,37,3.10
2009,05,05,11,38,1.70
2009,05,05,11,39,2.20
2009,05,05,11,40,0.20
2009,05,05,11,41,1.30
2009,05,05,11,42,5.00
2009,05,05,11,43,1.90
2009,05,05,11,44,4.30
2009,05,05,11,45,2.00
2009,05,05,11,46,1.20
2009,05,05,11,47,0.90
2009,05,05,11,48,0.00
2009,05,05,11,49,2.80
2009,05,05,11,50,3.20
2009,05,05,11,51,0.80
2009,05,05,11,52,1.10
2009,05,05,11,53,3.90
2009,05,05,11,54,0.90
2009,05,05,11,55,1.20
2009,05,05,11,56,0.30
2009,05,05,11,57,2.90
2009,05,05,11,58,0.10
2009,05,05,11,59,1.50
2009,05,05,12,00,2.60
2009,05,05,12,01,1.80
2009,05,05,12,02,2.00
2009,05,05,12,03,1.00
2009,05,05,12,04,1.40
2009,05,05,12,05,0.20
2009,05,05,12,06,1.20
2009,05,05,12,07,4.40
2009,05,05,12,08,3.40
2009,05,05,12,09,5.00
2009,05,05,12,10,3.00
2009,05,05,12,11,4.20
2009,05,05,12,12,0.00
2009,05,05,12,13,0.00
2009,05,05,12,14,0.30
2009,05,05,12,15,0.20
2009,05,05,12,16,2.00
2009,05,05,12,17,1.80
2009,05,05,12,18,5.60
2009,05,05,12,19,3.00
2009,05,05,12,20,3.10
2009,05,05,12,21,1.00
2009,05,05,12,22,4.50
2009,05,05,12,23,2.90
2009,05,05,12,24,1.80
2009,05,05,12,25,2.10
2009,05,05,12,26,3.00
2009,05,05,12,27,3.10
2009,05,05,12,28,4.00
2009,05,05,12,29,0.30
2009,05,05,12,30,5.60
2009,05,05,12,31,3.20
2009,05,05,12,32,5.10
2009,05,05,12,33,3.90
2009,05,05,12,34,0.80
2009,05,05,12,35,1.00
2009,05,05,12,36,2.60
2009,05,05,12,37,2.90
2009,05,05,12,38,3.00
2009,05,05,12,39,4.80
2009,05,05,12,40,7.40
2009,05,05,12,41,4.20
2009,05,05,12,42,5.80
2009,05,05,12,43,5.20
2009,05,05,12,44,1.00
2009,05,05,12,45,2.70
2009,05,05,12,46,3.50
2009,05,05,12,47,1.80
2009,05,05,12,48,4.70
2009,05,05,12,49,2.40
2009,05,05,12,50,2.20
2009,05,05,12,51,4.10
2009,05,05,12,52,2.50
2009,05,05,12,53,4.90
2009,05,05,12,54,9.00
2009,05,05,12,55,7.60
2009,05,05,12,56,9.20
2009,05,05,12,57,4.30
2009,05,05,12,58,9.00
2009,05,05,12,59,3.80
2009,05,05,13,00,6.50
2009,05,05,13,01,5.00
2009,05,05,13,02,2.80
2009,05,05,13,03,2.60
2009,05,05,13,04,2.00
2009,05,05,13,05,8.50
2009,05,05,13,06,5.80
2009,05,05,13,07,6.00
2009,05,05,13,08,6.00
2009,05,05,13,09,6.70
2009,05,05,13,10,7.30
2009,05,05,13,11,4.90
2009,05,05,13,12,5.70
2009,05,05,13,13,3.00
2009,05,05,13,14,4.20
2009,05,05,13,15,2.10
2009,05,05,13,16,4.60
2009,05,05,13,17,7.60
2009,05,05,13,18,9.30
2009,05,05,13,19,9.80
2009,05,05,13,20,6.20
2009,05,05,13,21,2.20
2009,05,05,13,22,4.60
2009,05,05,13,23,3.80
2009,05,05,13,24,2.60
2009,05,05,13,25,7.30
2009,05,05,13,26,7.00
2009,05,05,13,27,4.50
2009,05,05,13,28,7.20
2009,05,05,13,29,3.70
2009,05,05,13,30,5.90
2009,05,05,13,31,2.00
2009,05,05,13,32,4.20
2009,05,05,13,33,6.70
2009,05,05,13,34,1.90
2009,05,05,13,35,2.70
2009,05,05,13,36,5.30
2009,05,05,13,37,7.60
2009,05,05,13,38,8.10
2009,05,05,13,39,4.10
2009,05,05,13,40,5.50
2009,05,05,13,41,5.20
2009,05,05,13,42,0.50
2009,05,05,13,43,2.70
2009,05,05,13,44,2.30
2009,05,05,13,45,4.00
2009,05,05,13,46,3.20
2009,05,05,13,47,2.50
2009,05,05,13,48,6.60
2009,05,05,13,49,1.00
2009,05,05,13,50,3.10
2009,05,05,13,51,6.20
2009,05,05,13,52,4.50
2009,05,05,13,53,8.00
2009,05,05,13,54,10.70
2009,05,05,13,55,4.60
2009,05,05,13,56,1.90
2009,05,05,13,57,3.70
2009,05,05,13,58,6.00
2009,05,05,13,59,9.40
2009,05,05,14,00,5.50
2009,05,05,14,01,10.30
2009,05,05,14,02,8.60
2009,05,05,14,03,6.60
2009,05,05,14,04,5.60
2009,05,05,14,05,4.50
2009,05,05,14,06,1.70
2009,05,05,14,07,4.90
2009,05,05,14,08,8.30
2009,05,05,14,09,4.30
2009,05,05,14,10,11.20
2009,05,05,14,11,6.70
2009,05,05,14,12,7.30
2009,05,05,14,13,6.10
2009,05,05,14,14,3.10
2009,05,05,14,15,1.80
2009,05,05,14,16,6.30
2009,05,05,14,17,3.50
2009,05,05,14,18,7.20
2009,05,05,14,19,2.70
2009,05,05,14,20,9.30
2009,05,05,14,21,13.50
2009,05,05,14,22,9.10
2009,05,05,14,23,2.70
2009,05,05,14,24,13.00
2009,05,05,14,25,4.40
2009,05,05,14,26,7.70
2009,05,05,14,27,5.10
2009,05,05,14,28,13.60
2009,05,05,14,29,7.00
2009,05,05,14,30,9.00
2009,05,05,14,31,10.50
2009,05,05,14,32,8.20
2009,05,05,14,33,9.50
2009,05,05,14,34,15.00
2009,05,05,14,35,8.40
2009,05,05,14,36,4.70
2009,05,05,14,37,11.00
2009,05,05,14,38,6.70
2009,05,05,14,39,7.40
2009,05,05,14,40,5.80
2009,05,05,14,41,5.90
2009,05,05,14,42,1.30
2009,05,05,14,43,5.40
2009,05,05,14,44,11.30
2009,05,05,14,45,7.20
2009,05,05,14,46,7.00
2009,05,05,14,47,9.80
2009,05,05,14,48,8.30
2009,05,05,14,49,5.40
2009,05,05,14,50,10.50
2009,05,05,14,51,5.70
2009,05,05,14,52,11.40
2009,05,05,14,53,8.30
2009,05,05,14,54,7.90
2009,05,05,14,55,6.70
2009,05,05,14,56,8.40
2009,05,05,14,57,3.10
2009,05,05,14,58,11.90
2009,05,05,14,59,12.70
2009,05,05,15,00,3.20
2009,05,05,15,01,5.30
2009,05,05,15,02,4.30
2009,05,05,15,03,4.90
2009,05,05,15,04,6.70
2009,05,05,15,05,8.80
2009,05,05,15,06,8.50
2009,05,05,15,07,8.00
2009,05,05,15,08,10.50
2009,05,05,15,09,9.10
2009,05,05,15,10,4.00
2009,05,05,15,11,9.40
2009,05,05,15,12,2.90
2009,05,05,15,13,8.00
2009,05,05,15,14,7.60
2009,05,05,15,15,6.50
2009,05,05,15,16,6.90
2009,05,05,15,17,1.00
2009,05,05,15,18,4.80
2009,05,05,15,19,2.30
2009,05,05,15,20,0.70
2009,05,05,15,21,2.70
2009,05,05,15,22,6.40
2009,05,05,15,23,7.90
2009,05,05,15,24,9.00
2009,05,05,15,25,13.40
2009,05,05,15,26,9.40
2009,05,05,15,27,5.60
2009,05,05,15,28,6.10
2009,05,05,15,29,5.50
2009,05,05,15,30,10.90
2009,05,05,15,31,4.50
2009,05,05,15,32,2.80
2009,05,05,15,33,5.50
2009,05,05,15,34,6.20
2009,05,05,15,35,1.90
2009,05,05,15,36,3.10
2009,05,05,15,37,6.90
2009,05,05,15,38,2.10
2009,05,05,15,39,5.40
2009,05,05,15,40,5.00
2009,05,05,15,41,4.30
2009,05,05,15,42,8.10
2009,05,05,15,43,4.10
2009,05,05,15,44,5.60
2009,05,05,15,45,4.60
2009,05,05,15,46,2.60
2009,05,05,15,47,3.80
2009,05,05,15,48,1.30
2009,05,05,15,49,2.50
2009,05,05,15,50,1.20
2009,05,05,15,51,9.30
2009,05,05,15,52,7.70
2009,05,05,15,53,9.40
2009,05,05,15,54,8.20
2009,05,05,15,55,11.10
2009,05,05,15,56,9.70
2009,05,05,15,57,5.60
2009,05,05,15,58,7.40
2009,05,05,15,59,6.40
2009,05,05,16,00,9.70
2009,05,05,16,01,3.80
2009,05,05,16,02,3.70
2009,05,05,16,03,4.30
2009,05,05,16,04,4.20
2009,05,05,16,05,1.30
2009,05,05,16,06,4.80
2009,05,05,16,07,1.60
2009,05,05,16,08,3.00
2009,05,05,16,09,3.80
2009,05,05,16,10,6.10
2009,05,05,16,11,5.70
2009,05,05,16,12,8.60
2009,05,05,16,13,3.50
2009,05,05,16,14,2.50
2009,05,05,16,15,4.20
2009,05,05,16,16,1.30
2009,05,05,16,17,0.60
2009,05,05,16,18,1.50
2009,05,05,16,19,3.90
2009,05,05,16,20,4.10
2009,05,05,16,21,1.30
2009,05,05,16,22,3.40
2009,05,05,16,23,5.50
2009,05,05,16,24,6.20
2009,05,05,16,25,4.30
2009,05,05,16,26,5.90
2009,05,05,16,27,4.20
2009,05,05,16,28,5.00
2009,05,05,16,29,3.80
2009,05,05,16,30,5.60
2009,05,05,16,31,2.30
2009,05,05,16,32,8.90
2009,05,05,16,33,3.80
2009,05,05,16,34,3.60
2009,05,05,16,35,3.20
2009,05,05,16,36,5.00
2009,05,05,16,37,5.00
2009,05,05,16,38,4.90
2009,05,05,16,39,2.60
2009,05,05,16,40,9.90
2009,05,05,16,41,7.70
2009,05,05,16,42,6.50
2009,05,05,16,43,7.50
2009,05,05,16,44,8.30
2009,05,05,16,45,4.30
2009,05,05,16,46,6.00
2009,05,05,16,47,8.00
2009,05,05,16,48,5.60
2009,05,05,16,49,3.30
2009,05,05,16,50,8.00
2009,05,05,16,51,4.40
2009,05,05,16,52,8.10
2009,05,05,16,53,4.70
2009,05,05,16,54,8.40
2009,05,05,16,55,2.70
2009,05,05,16,56,10.50
2009,05,05,16,57,10.20
2009,05,05,16,58,3.90
2009,05,05,16,59,6.20
2009,05,05,17,00,5.80
2009,05,05,17,01,6.00
2009,05,05,17,02,6.20
2009,05,05,17,03,5.70
2009,05,05,17,04,7.90
2009,05,05,17,05,8.10
2009,05,05,17,06,6.00
2009,05,05,17,07,7.40
2009,05,05,17,08,7.90
2009,05,05,17,09,1.60
2009,05,05,17,10,3.40
2009,05,05,17,11,7.20
2009,05,05,17,12,3.90
2009,05,05,17,13,4.00
2009,05,05,17,14,4.00
2009,05,05,17,15,3.80
2009,05,05,17,16,4.10
2009,05,05,17,17,0.60
2009,05,05,17,18,4.00
2009,05,05,17,19,5.70
2009,05,05,17,20,8.20
2009,05,05,17,21,6.30
2009,05,05,17,22,7.20
2009,05,05,17,23,5.40
2009,05,05,17,24,7.30
2009,05,05,17,25,6.70
2009,05,05,17,26,0.80
2009,05,05,17,27,5.00
2009,05,05,17,28,3.00
2009,05,05,17,29,0.90
2009,05,05,17,30,2.20
2009,05,05,17,31,5.10
2009,05,05,17,32,6.50
2009,05,05,17,33,5.50
2009,05,05,17,34,4.20
2009,05,05,17,35,5.00
2009,05,05,17,36,4.30
2009,05,05,17,37,5.70
2009,05,05,17,38,2.70
2009,05,05,17,39,5.40
2009,05,05,17,40,4.70
2009,05,05,17,41,5.40
2009,05,05,17,42,6.30
2009,05,05,17,43,6.90
2009,05,05,17,44,6.40
2009,05,05,17,45,6.80
2009,05,05,17,46,4.90
2009,05,05,17,47,3.60
2009,05,05,17,48,4.50
2009,05,05,17,49,6.70
2009,05,05,17,50,9.60
2009,05,05,17,51,7.30
2009,05,05,17,52,5.20
2009,05,05,17,53,3.40
2009,05,05,17,54,0.90
2009,05,05,17,55,4.80
2009,05,05,17,56,3.80
2009,05,05,17,57,2.40
2009,05,05,17,58,5.00
2009,05,05,17,59,1.80
2009,05,05,18,00,4.10
2009,05,05,18,01,5.10
2009,05,05,18,02,4.80
2009,05,05,18,03,5.60
2009,05,05,18,04,4.70
2009,05,05,18,05,5.70